Johnson County (6A4)
Johnson County, TN
Field Elevation: 2240
Lat: 36°25.07N  Long: 81°49.51W
CTAF/Unicom Freq: 122.7000
   
    
Weather Advisories
7/25/2014 01:31 Z
Altimeter 30.05" Hg
Wind 090° @ 0 KT
Gusts --
Visibility 10 SM
Ceiling SCT018 BKN031
Temperature 20° C (68° F)
Dewpoint 18° C (64° F)
Relative Humidity 88%
Density Altitude --
Condensation Altitude 3,400 feet
  Wind and Runways
Indicated Runway = 6
History
 
 
More Info
All DigiWx sites map
 
Johnson County Airport FBO
 
Airport IQ 5010
(M01) General Dewitt Spain Airport
(3M3) Collegedale Muni
 
about DigiWx
 
FAA Disclaimer: The data displayed is for advisory purposes only and is not to be used for flight planning or operations. For official data, please call (not available) to hear the current automated AWOS voice message.
  METAR 6A4 250131Z AUTO 09000KT 10SM SCT018 BKN031 20/18 A3005